Location: Chuathbaluk
(61.5726°N, 159.2454°W)
Time: 12:13:01
(UTC+00:00)

N. Korean satellite - Pass Details

Date: 04 November 2020
Orbit: 453 x 503 km, 97.2° (Epoch: 04 December)

Event Time Altitude Azimuth Distance (km) Brightness Sun altitude
Rises 04:43:25 0° 224° (SW) 2,507 10.9 -16.3°
Reaches altitude 10° 04:47:17 10° 268° (W) 1,624 10.6 -16.8°
Maximum altitude 04:47:51 10° 278° (W) 1,604 10.5 -16.8°
Drops below altitude 10° 04:48:25 10° 287° (WNW) 1,623 10.4 -16.9°
Sets 04:52:17 0° 332° (NNW) 2,495 10.6 -17.4°
